Hlavní strana
METAR-TAF:

METAR-TAF

Letiště :

Glasgow Municipal Airport

Glasgow, Kentucky, Spojené státy americké

zeměpisná šířka: 37-01-54N, zeměpisná délka: 085-57-13W, výška: 218 m

Aktuální stav počasí

Zpráva byla vytvořena před 14 minutami, v 11:55 UTC
Bezvětří
Teplota 19°C
Vlhkost vzduchu 78%
Tlak 1018 hPa
Viditelnost: 16.1 km
Jasno

METAR: KGLW 261155Z AUTO 00000KT 10SM CLR 19/15 A3006 RMK AO2 70001 T01880152 10200 20178

Čas: 07:09 (12:09 UTC)


TAF: chybějící

Stav a předpovědi počasí z více než 4 000 letišť (zprávy METAR a TAF).

Červené a žluté tečky na mapě představují dostupné meteorologické stanice.

Když kurzor umístíte na tečku, zobrazí se název stanice.

Pak kliknutím zobrazíte stav a předpověď počasí.

Chcete-li změnit mapu, kliknutím na zelené tlačítko se znaménkem +mapu přiblížíte, kliknutím na zelené tlačítko se znaménkem – mapu oddálíte a kliknutím na zelené šipky přejdete na sousední mapy.


METAR-TAF: